Stündliche Wetter Berlin

Heute, 3 August, Dienstag

Zeit Temperatur Niederschläge Wind Luftdruck Luftfeuchtigkeit
00:00 +14°C° 0 mm 2 m/S 756 mmHg 76%
01:00 +14°C° 0 mm 2 m/S 756 mmHg 79%
02:00 +13°C° 0 mm 2 m/S 756 mmHg 82%
03:00 +13°C° 0 mm 2 m/S 756 mmHg 85%
04:00 +13°C° 0 mm 2 m/S 757 mmHg 88%
05:00 +14°C° 0 mm 2 m/S 757 mmHg 84%
06:00 +15°C° 0 mm 2 m/S 757 mmHg 80%
07:00 +16°C° 0 mm 2 m/S 757 mmHg 76%
08:00 +17°C° 0 mm 2 m/S 757 mmHg 68%
09:00 +19°C° 0 mm 2 m/S 757 mmHg 61%
10:00 +21°C° 0 mm 2 m/S 757 mmHg 53%
11:00 +23°C° 0.1 mm 2 m/S 757 mmHg 49%
12:00 +23°C° 0.1 mm 2 m/S 756 mmHg 45%
13:00 +24°C° 0.1 mm 2 m/S 756 mmHg 41%
14:00 +24°C° 0 mm 2 m/S 756 mmHg 43%
15:00 +23°C° 0 mm 1 m/S 756 mmHg 45%
16:00 +23°C° 0 mm 1 m/S 756 mmHg 48%
17:00 +22°C° 0 mm 1 m/S 755 mmHg 51%
18:00 +20°C° 0 mm 2 m/S 755 mmHg 55%
19:00 +20°C° 0 mm 2 m/S 755 mmHg 58%
20:00 +19°C° 0 mm 2 m/S 756 mmHg 59%
21:00 +19°C° 0 mm 2 m/S 756 mmHg 60%
22:00 +18°C° 0 mm 2 m/S 756 mmHg 61%
23:00 +18°C° 0 mm 2 m/S 756 mmHg 63%

Morgen, 4 August, Mittwoch

Zeit Temperatur Niederschläge Wind Luftdruck Luftfeuchtigkeit
00:00 +18°C° 0 mm 2 m/S 756 mmHg 65%
01:00 +17°C° 0 mm 2 m/S 756 mmHg 68%
02:00 +17°C° 0.2 mm 2 m/S 756 mmHg 73%
03:00 +17°C° 0.2 mm 2 m/S 755 mmHg 78%
04:00 +16°C° 0.2 mm 2 m/S 755 mmHg 84%
05:00 +16°C° 0.6 mm 2 m/S 755 mmHg 87%
06:00 +16°C° 0.6 mm 2 m/S 756 mmHg 90%
07:00 +16°C° 0.6 mm 1 m/S 756 mmHg 93%
08:00 +17°C° 0.5 mm 2 m/S 756 mmHg 90%
09:00 +17°C° 0.5 mm 2 m/S 756 mmHg 88%
10:00 +17°C° 0.5 mm 2 m/S 756 mmHg 86%
11:00 +18°C° 0.3 mm 2 m/S 756 mmHg 83%
12:00 +18°C° 0.3 mm 2 m/S 756 mmHg 80%
13:00 +19°C° 0.3 mm 2 m/S 756 mmHg 78%
14:00 +20°C° 0.2 mm 2 m/S 756 mmHg 73%
15:00 +21°C° 0.2 mm 2 m/S 755 mmHg 68%
16:00 +21°C° 0.2 mm 2 m/S 755 mmHg 63%
17:00 +21°C° 0.1 mm 2 m/S 755 mmHg 66%
18:00 +20°C° 0.1 mm 2 m/S 755 mmHg 69%
19:00 +19°C° 0.1 mm 2 m/S 755 mmHg 72%
20:00 +19°C° 0.1 mm 2 m/S 755 mmHg 75%
21:00 +18°C° 0.1 mm 2 m/S 756 mmHg 79%
22:00 +17°C° 0.1 mm 2 m/S 756 mmHg 83%
23:00 +16°C° 0 mm 2 m/S 756 mmHg 84%

übermorgen, 5 August, Donnerstag

Zeit Temperatur Niederschläge Wind Luftdruck Luftfeuchtigkeit
00:00 +16°C° 0 mm 2 m/S 756 mmHg 86%
01:00 +15°C° 0 mm 2 m/S 756 mmHg 87%
02:00 +15°C° 0 mm 2 m/S 755 mmHg 89%
03:00 +15°C° 0 mm 2 m/S 755 mmHg 90%
04:00 +14°C° 0 mm 1 m/S 755 mmHg 92%
05:00 +15°C° 0 mm 1 m/S 755 mmHg 88%
06:00 +16°C° 0 mm 1 m/S 755 mmHg 85%
07:00 +17°C° 0 mm 2 m/S 755 mmHg 81%
08:00 +18°C° 0.2 mm 2 m/S 755 mmHg 76%
09:00 +20°C° 0.2 mm 2 m/S 755 mmHg 71%
10:00 +21°C° 0.2 mm 2 m/S 755 mmHg 66%
11:00 +21°C° 0.6 mm 2 m/S 754 mmHg 65%
12:00 +23°C° 0.6 mm 2 m/S 754 mmHg 64%
13:00 +23°C° 0.6 mm 2 m/S 754 mmHg 62%
14:00 +23°C° 0.7 mm 2 m/S 754 mmHg 64%
15:00 +23°C° 0.7 mm 2 m/S 753 mmHg 65%
16:00 +23°C° 0.7 mm 2 m/S 753 mmHg 66%
17:00 +21°C° 0.2 mm 2 m/S 753 mmHg 70%
18:00 +20°C° 0.2 mm 2 m/S 753 mmHg 74%
19:00 +19°C° 0.2 mm 2 m/S 753 mmHg 79%
20:00 +18°C° 0.1 mm 2 m/S 753 mmHg 81%
21:00 +18°C° 0.1 mm 2 m/S 753 mmHg 84%
22:00 +17°C° 0.1 mm 2 m/S 753 mmHg 87%
23:00 +16°C° 0 mm 2 m/S 753 mmHg 88%

6 August, Freitag

Zeit Temperatur Niederschläge Wind Luftdruck Luftfeuchtigkeit
00:00 +16°C° 0 mm 1 m/S 753 mmHg 88%
01:00 +16°C° 0 mm 1 m/S 752 mmHg 89%
02:00 +15°C° 0.1 mm 1 m/S 752 mmHg 90%
03:00 +15°C° 0.1 mm 1 m/S 752 mmHg 90%
04:00 +15°C° 0.1 mm 1 m/S 752 mmHg 91%
05:00 +16°C° 0.1 mm 1 m/S 752 mmHg 88%
06:00 +18°C° 0.1 mm 1 m/S 752 mmHg 84%
07:00 +19°C° 0.1 mm 1 m/S 752 mmHg 81%
08:00 +20°C° 0.1 mm 1 m/S 752 mmHg 75%
09:00 +22°C° 0.1 mm 1 m/S 752 mmHg 68%
10:00 +23°C° 0.1 mm 1 m/S 752 mmHg 61%
11:00 +24°C° 0.3 mm 2 m/S 752 mmHg 57%
12:00 +25°C° 0.3 mm 2 m/S 751 mmHg 53%
13:00 +26°C° 0.3 mm 3 m/S 751 mmHg 49%
14:00 +26°C° 0.1 mm 2 m/S 751 mmHg 48%
15:00 +26°C° 0.1 mm 2 m/S 751 mmHg 47%
16:00 +26°C° 0.1 mm 2 m/S 751 mmHg 46%
17:00 +25°C° 0.1 mm 2 m/S 751 mmHg 52%
18:00 +24°C° 0.1 mm 1 m/S 751 mmHg 58%
19:00 +23°C° 0.1 mm 1 m/S 751 mmHg 64%
20:00 +20°C° 0.2 mm 2 m/S 752 mmHg 71%
21:00 +19°C° 0.2 mm 2 m/S 752 mmHg 77%
22:00 +18°C° 0.2 mm 2 m/S 752 mmHg 84%
23:00 +18°C° 0 mm 2 m/S 752 mmHg 85%

7 August, Samstag

Zeit Temperatur Niederschläge Wind Luftdruck Luftfeuchtigkeit
00:00 +17°C° 0 mm 2 m/S 752 mmHg 87%
01:00 +17°C° 0 mm 2 m/S 752 mmHg 88%
02:00 +17°C° 0 mm 2 m/S 752 mmHg 89%
03:00 +16°C° 0 mm 2 m/S 752 mmHg 90%
04:00 +16°C° 0 mm 2 m/S 752 mmHg 91%
05:00 +17°C° 0 mm 2 m/S 752 mmHg 88%
06:00 +18°C° 0 mm 2 m/S 752 mmHg 84%
07:00 +18°C° 0 mm 2 m/S 753 mmHg 81%
08:00 +20°C° 0 mm 2 m/S 753 mmHg 73%
09:00 +23°C° 0 mm 2 m/S 752 mmHg 66%
10:00 +24°C° 0 mm 3 m/S 752 mmHg 58%
11:00 +25°C° 0 mm 3 m/S 752 mmHg 53%
12:00 +26°C° 0 mm 3 m/S 752 mmHg 48%
13:00 +27°C° 0 mm 4 m/S 752 mmHg 43%
14:00 +27°C° 0 mm 4 m/S 752 mmHg 45%
15:00 +26°C° 0 mm 3 m/S 752 mmHg 46%
16:00 +26°C° 0 mm 3 m/S 752 mmHg 48%
17:00 +24°C° 0.1 mm 3 m/S 752 mmHg 57%
18:00 +22°C° 0.1 mm 3 m/S 752 mmHg 65%
19:00 +21°C° 0.1 mm 3 m/S 752 mmHg 74%
20:00 +20°C° 0 mm 3 m/S 752 mmHg 77%
21:00 +19°C° 0 mm 2 m/S 752 mmHg 81%
22:00 +19°C° 0 mm 2 m/S 753 mmHg 84%
23:00 +19°C° 0.1 mm 2 m/S 753 mmHg 85%

8 August, Sonntag

Zeit Temperatur Niederschläge Wind Luftdruck Luftfeuchtigkeit
00:00 +19°C° 0.1 mm 2 m/S 753 mmHg 87%
01:00 +18°C° 0.1 mm 3 m/S 753 mmHg 88%
02:00 +18°C° 0 mm 3 m/S 753 mmHg 90%
03:00 +17°C° 0 mm 2 m/S 753 mmHg 91%
04:00 +17°C° 0 mm 2 m/S 753 mmHg 93%
05:00 +18°C° 0 mm 2 m/S 753 mmHg 89%
06:00 +18°C° 0 mm 3 m/S 753 mmHg 85%
07:00 +19°C° 0 mm 3 m/S 753 mmHg 81%
08:00 +20°C° 0 mm 3 m/S 754 mmHg 73%
09:00 +22°C° 0 mm 4 m/S 754 mmHg 64%
10:00 +23°C° 0 mm 4 m/S 754 mmHg 56%
11:00 +25°C° 0.1 mm 5 m/S 754 mmHg 52%
12:00 +25°C° 0.1 mm 5 m/S 754 mmHg 49%
13:00 +26°C° 0.1 mm 6 m/S 754 mmHg 45%
14:00 +25°C° 0 mm 5 m/S 754 mmHg 47%
15:00 +23°C° 0 mm 5 m/S 755 mmHg 49%
16:00 +22°C° 0 mm 4 m/S 755 mmHg 51%
17:00 +22°C° 0 mm 4 m/S 755 mmHg 54%
18:00 +21°C° 0 mm 4 m/S 756 mmHg 58%
19:00 +20°C° 0 mm 3 m/S 756 mmHg 61%
20:00 +19°C° 0 mm 3 m/S 757 mmHg 67%
21:00 +18°C° 0 mm 3 m/S 757 mmHg 72%
22:00 +17°C° 0 mm 2 m/S 757 mmHg 78%
23:00 +17°C° 0 mm 3 m/S 758 mmHg 78%
Mehr zeigen

Wir brauchen deine Erlaubnis

Meteoprog und unser Service Anbieter werden persönliche Daten aufbewahren, so wie Cookies, Geräte Bezeichnung oder ähnliche Technologien von deinem Gerät und Prozess, so wie Persönliche Daten Inhalte und Werbungen, genauso wie social Media und den Verkehr zu analysieren.

  • Aufbewahrung und/oder Zugang zu deiner Geräte Informationen.

    Cookies, Geräte Bezeichnung oder andere Informationen, können aufbewahrt oder Zugang zu deinem Gerät erhalten, für den Grund, der oben angegeben wird.

  • Personalisierte Werbung und Inhalte, Messungen, Einblick in das Publikum und Produkt Entwicklung.

    Werbungen und Inhalte können personalisiert werden, basierend auf ein Profil. Mehr Daten können besser personalisierte Werbungen und Inhalte hinzufügen. Werbung und Inhalte können gezeigt und gemessen werden. Einblicke über das Publikum, welche die Werbung gesehen haben und den Inhalt, können abgeleitet werden. So wie Daten können genutzt werden, um es zu verbessern oder die Benutzer Erfahrung zu verbessern das System und die Software.

Wenn du “Ich stimme zu” klickst, erlaubst du uns, die Cookies zu benutzen die Geräte Bezeichnung, den Web oder ähnliche Technologien zu benutzen. Deine Settings, können in deinem Gerät bei deinem Browser geändert werden.

Für den bestimmten Zweck, berechtigten Interessen beruhen darauf, mehr als auf den Inhalt. Du kannst mehr darüber in unseren Privaten und Cookie Politik lesen.